Overview Statistics Trail Chart Weather Telemetry Raw packets
 

This is the latest recevied weather packets stored in our database for station/object DL2GFH-3. If no packets are shown the sender has not sent any weather packets the latest 10 day(s).

<< 17 18 19 20 21 22 23 >>
Time Temp. Humidity Pressure Rain* Wind** Luminosity Snow
1777316728 22.78° C 26% 1017.5 hPa - - - -
1777315823 21.67° C 28% 1017.5 hPa - - - -
1777314917 21.67° C 28% 1017.3 hPa - - - -
1777314012 22.22° C 27% 1017.4 hPa - - - -
1777313106 22.22° C 27% 1017.3 hPa - - - -
1777312201 22.78° C 26% 1017.2 hPa - - - -
1777311296 23.33° C 25% 1017.2 hPa - - - -
1777310390 23.89° C 24% 1017.1 hPa - - - -
1777309485 25° C 23% 1017 hPa - - - -
1777308579 26.11° C 22% 1017.1 hPa - - - -
1777307674 25.56° C 22% 1017.2 hPa - - - -
1777306768 25° C 23% 1017.2 hPa - - - -
1777305863 23.89° C 24% 1017.4 hPa - - - -
1777304052 23.33° C 24% 1017.5 hPa - - - -
1777303147 23.33° C 24% 1017.5 hPa - - - -
1777302241 23.33° C 24% 1017.6 hPa - - - -
1777301336 23.89° C 24% 1017.7 hPa - - - -
1777300431 23.89° C 24% 1017.8 hPa - - - -
1777298620 23.89° C 23% 1018 hPa - - - -
1777297714 24.44° C 23% 1018.1 hPa - - - -
1777296809 24.44° C 23% 1018.4 hPa - - - -
1777128401 22.78° C 24% 1016.2 hPa - - - -
1777127496 22.78° C 24% 1016.2 hPa - - - -
1777126591 22.78° C 23% 1016.1 hPa - - - -
1777125685 23.33° C 23% 1016.3 hPa - - - -

* Rain since midnight (hover to see other rain measurements)
** Current wind speed in m/s (hover to see current wind gust speed)